Location: Sydney
(46.1500°N, 60.1670°W)
Time: 21:12:06
(UTC-03:00)

Iridium 90 - Visible Passes

Search period start: 28 August 2016 00:00
Search period end: 07 September 2016 00:00
Orbit: 747 x 750 km, 86.4° (Epoch: 28 August)

Date Brightness Start Highest point End Pass type
(mag) Time Alt. Az. Time Alt. Az. Time Alt. Az.
28 Aug 6.5 20:41:11 10° NNE 20:45:30 27° ENE 20:48:54 14° SE visible
28 Aug 6.7 22:21:02 10° NNW 22:25:42 38° W 22:28:46 19° SW visible
29 Aug 5.5 21:38:41 10° N 21:43:47 82° W 21:47:05 22° S visible
29 Aug 8.3 23:22:10 10° WNW 23:22:59 10° WNW 23:23:48 10° W visible
30 Aug 5.7 20:56:45 10° N 21:01:39 47° E 21:05:25 17° SSE visible
30 Aug 7.6 22:37:34 10° NNW 22:41:25 22° W 22:45:17 10° SW visible
31 Aug 6.7 20:15:18 10° NNE 20:19:19 23° ENE 20:23:19 10° SE visible
31 Aug 6.4 21:54:50 10° NNW 21:59:40 46° W 22:03:40 15° SSW visible
01 Sep 5.4 21:12:35 10° N 21:17:42 83° E 21:22:04 14° S visible
01 Sep 8.2 22:54:51 10° NW 22:57:03 13° WNW 22:59:14 10° W visible
02 Sep 6.0 20:30:45 10° N 20:35:31 39° E 20:40:15 10° SSE visible
02 Sep 7.4 22:11:14 10° NNW 22:15:26 27° W 22:19:37 10° SW visible
03 Sep 6.1 21:28:39 10° NNW 21:33:37 56° W 21:38:33 10° SSW visible
04 Sep 5.4 20:46:31 10° N 20:51:36 69° E 20:56:38 10° S visible
04 Sep 8.1 22:28:08 10° NW 22:31:05 16° WNW 22:34:01 10° WSW visible
05 Sep 6.2 20:04:48 10° NNE 20:09:22 32° ENE 20:13:54 10° SE visible
05 Sep 7.1 21:44:57 10° NNW 21:49:25 32° W 21:53:53 10° SW visible
06 Sep 5.8 21:02:30 10° N 21:07:33 68° W 21:12:34 10° S visible
